User: anonymous   Login
Location: Unspecified
(0.0000°N, 0.0000°E)
Time: 22:49:14
(UTC+02:00)
Language:

Orbus 21S - Orbit

View from above orbital plane
View from above orbital plane
View from above satellite
View from above satellite

Ground track
Ground track

The orbit data is extracted from the following two-line orbital elements,

1 20669U 90056C   18112.15448181  .00000727  00000-0  42342-3 0  9992
2 20669  24.3925 318.2538 7106162 245.6687  28.0213  2.48704218235092
Epoch (UTC): 22 April 2018 03:42:27
Eccentricity: 0.7106162
inclination: 24.3925°
perigee height: 281 km
apogee height: 32985 km
right ascension of ascending node: 318.2538°
argument of perigee: 245.6687°
revolutions per day: 2.48704218
mean anomaly at epoch: 28.0213°
orbit number at epoch: 23509

The dashed part of the orbit path shows where the satellite is in the earth's shadow,  

DLR